Location: Unspecified
(0.0000°N, 0.0000°E)
Time: 04:03:55
(UTC+00:00)

AO-7 - Visible Passes

Search period start: 23 September 2020 00:00
Search period end: 03 October 2020 00:00
Orbit: 1440 x 1459 km, 101.8° (Epoch: 22 September)

Date Brightness Start Highest point End Pass type
(mag) Time Alt. Az. Time Alt. Az. Time Alt. Az.
23 Sep ? 02:22:35 10° NE 02:29:13 27° ESE 02:35:51 10° SSE visible
23 Sep ? 04:14:03 10° N 04:21:35 40° WNW 04:25:10 28° WSW visible
24 Sep ? 03:13:40 10° NNE 03:21:53 72° ESE 03:30:08 10° S visible
24 Sep ? 05:10:38 10° NW 05:14:11 13° WNW 05:17:45 10° W visible
25 Sep ? 02:16:03 10° ENE 02:22:15 24° ESE 02:28:26 10° SSE visible
25 Sep ? 04:06:51 10° N 04:14:36 46° WNW 04:22:24 10° SW visible
26 Sep ? 03:06:45 10° NNE 03:14:54 64° ESE 03:23:04 10° S visible
26 Sep ? 05:02:40 10° NW 05:07:13 16° WNW 05:11:48 10° WSW visible
27 Sep ? 02:09:37 10° ENE 02:15:16 20° ESE 02:20:55 10° SSE visible
27 Sep ? 03:59:40 10° N 04:07:36 52° WNW 04:15:36 10° SSW visible
28 Sep ? 02:59:52 10° NNE 03:07:54 56° ESE 03:15:57 10° S visible
28 Sep ? 04:54:57 10° NNW 05:00:14 19° WNW 05:05:34 10° WSW visible
29 Sep ? 02:03:18 10° ENE 02:08:18 17° ESE 02:13:17 10° SE visible
29 Sep ? 03:52:32 10° N 04:00:36 59° WNW 04:08:44 10° SSW visible
30 Sep ? 02:53:02 10° NE 03:00:55 49° ESE 03:08:48 10° S visible
30 Sep ? 04:47:23 10° NNW 04:53:15 22° WNW 04:59:11 10° WSW visible
01 Oct ? 01:57:11 10° ENE 02:01:20 15° ESE 02:05:29 10° SE visible
01 Oct ? 03:45:26 10° N 03:53:37 67° WNW 04:01:50 10° SSW visible
02 Oct ? 02:46:14 10° NE 02:53:55 43° ESE 03:01:37 10° S visible
02 Oct ? 04:39:54 10° NNW 04:46:17 25° WNW 04:52:43 10° SW visible
